User: anonymous   Login
Location: Unspecified
(50.1700°N, 6.8600°E)
Time: 23:59:39
(UTC+00:00)
Language:

RESURS DK-1 - Orbit

View from above orbital plane
View from above orbital plane
View from above satellite
View from above satellite

Ground track
Ground track

The orbit data is extracted from the following two-line orbital elements,

1 29228U 06021A   19318.58221958 +.00000061 +00000-0 +11942-4 0  9992
2 29228 069.9370 017.5276 0001871 039.5808 320.5489 15.02483250740324
Epoch (UTC): 14 November 2019 13:58:23
Eccentricity: 0.0001871
inclination: 69.9370°
perigee height: 558 km
apogee height: 560 km
right ascension of ascending node: 17.5276°
argument of perigee: 39.5808°
revolutions per day: 15.02483250
mean anomaly at epoch: 320.5489°
orbit number at epoch: 74032

The dashed part of the orbit path shows where the satellite is in the earth's shadow,  

DLR